Weather History for Hurlburt Field, FL

Change the Weather History Date:

Thursday, January 19, 2012

  Actual Average Record
Temperature  
Mean Temperature 49 °F -  
Max Temperature 63 °F 59 °F 71 °F (2001)
Min Temperature 35 °F 40 °F 26 °F (1997)
Degree Days  
Heating Degree Days 16    
Moisture  
Dew Point 44 °F    
Average Humidity 75    
Maximum Humidity 92    
Minimum Humidity 52    
Precipitation  
Precipitation 0.00 in - - ()
Sea Level Pressure  
Sea Level Pressure 30.13 in    
Wind  
Wind Speed 6 mph (ESE)    
Max Wind Speed 12 mph    
Max Gust Speed -    
Visibility 10 miles    
Events      
Averages and records for this station are not official NWS values.
T = Trace of Precipitation, MM = Missing Value Source: NWS Daily Summary

Daily Weather History Graph

Daily Weather History Graph

Search for Another Location

Airport:

Trip Planner

Search our weather history database for the weather conditions in past years. The results will help you decide how hot, cold, wet, or windy it might be!

Date:

Astronomy

Jan. 19, 2012 Rise Set
Actual Time 6:43 AM CST 5:11 PM CST
Civil Twilight 6:17 AM CST 5:37 PM CST
Nautical Twilight 5:48 AM CST 6:06 PM CST
Astronomical Twilight 5:19 AM CST 6:35 PM CST
Moon 3:15 AM CST (1/19) 1:47 PM CST (1/19)
Length of Visible Light 11h 19m
Length of Day
10h 27m
Waning Crescent, 15% of the Moon is Illuminated
Jan 19
Waning Crescent
Jan 23
New
Jan 30
First Quarter
Feb 7
Full
Feb 14
Last Quarter

Hourly Weather History & Observations

Time (CST) Temp. Windchill Dew Point Humidity Pressure Visibility Wind Dir Wind Speed Gust Speed Precip Events Conditions
12:55 AM 37.2 °F 32.6 °F 35.1 °F 92% 30.12 in 10.0 mi North 5.8 mph - N/A   Clear
1:55 AM 36.1 °F 32.3 °F 33.8 °F 91% 30.12 in 10.0 mi North 4.6 mph - N/A   Clear
2:55 AM 35.6 °F 31.7 °F 33.3 °F 91% 30.12 in 10.0 mi NNE 4.6 mph - N/A   Clear
3:55 AM 37.2 °F 34.7 °F 33.1 °F 85% 30.12 in 10.0 mi NE 3.5 mph - N/A   Clear
4:55 AM 35.6 °F 32.8 °F 32.5 °F 89% 30.14 in 10.0 mi NNE 3.5 mph - N/A   Clear
5:55 AM 38.5 °F 36.1 °F 32.0 °F 78% 30.15 in 10.0 mi NE 3.5 mph - N/A   Clear
6:55 AM 35.2 °F 30.3 °F 32.2 °F 89% 30.18 in 10.0 mi North 5.8 mph - N/A   Clear
7:55 AM 42.4 °F 38.8 °F 34.2 °F 72% 30.20 in 10.0 mi NE 5.8 mph - N/A   Clear
8:55 AM 48.6 °F - 33.6 °F 56% 30.21 in 10.0 mi East 8.1 mph - N/A   Clear
9:55 AM 53.2 °F - 36.7 °F 53% 30.20 in 10.0 mi Variable 6.9 mph - N/A   Clear
10:55 AM 55.4 °F - 38.8 °F 54% 30.20 in 10.0 mi ESE 8.1 mph - N/A   Clear
11:55 AM 57.6 °F - 42.1 °F 56% 30.16 in 10.0 mi SSE 10.4 mph - N/A   Clear
12:55 PM 59.4 °F - 41.5 °F 52% 30.13 in 10.0 mi SE 8.1 mph - N/A   Clear
1:55 PM 59.7 °F - 43.5 °F 55% 30.12 in 10.0 mi SE 8.1 mph - N/A   Clear
2:55 PM 60.6 °F - 43.0 °F 52% 30.10 in 10.0 mi ESE 8.1 mph - N/A   Clear
3:55 PM 60.8 °F - 49.1 °F 65% 30.09 in 10.0 mi SE 11.5 mph - N/A   Clear
4:55 PM 59.7 °F - 52.0 °F 76% 30.09 in 10.0 mi SE 8.1 mph - N/A   Clear
5:55 PM 58.8 °F - 53.2 °F 82% 30.09 in 10.0 mi SE 5.8 mph - N/A   Clear
6:55 PM 59.4 °F - 54.9 °F 85% 30.09 in 10.0 mi ESE 6.9 mph - N/A   Clear
7:55 PM 61.5 °F - 55.9 °F 82% 30.10 in 10.0 mi Calm Calm - N/A   Clear
8:55 PM 63.0 °F - 57.6 °F 82% 30.10 in 10.0 mi SSE 10.4 mph - N/A   Overcast
9:55 PM 63.1 °F - 58.3 °F 84% 30.09 in 10.0 mi SSE 10.4 mph - N/A   Overcast
10:55 PM 62.8 °F - 59.2 °F 88% 30.08 in 10.0 mi South 11.5 mph - N/A   Scattered Clouds
11:55 PM 62.2 °F - 58.6 °F 88% 30.09 in 10.0 mi South 9.2 mph - N/A   Partly Cloudy